Location: Orinda
(37.8771°N, 122.1797°W)
Time: 21:16:47
(UTC+00:00)

Cosmos 1602 Rocket - Visible Passes

Search period start: 23 January 2020 00:00
Search period end: 02 February 2020 00:00
Orbit: 603 x 634 km, 82.5° (Epoch: 23 January)

Date Brightness Start Highest point End Pass type
(mag) Time Alt. Az. Time Alt. Az. Time Alt. Az.
23 Jan 6.8 03:07:33 10° W 03:08:21 10° WNW 03:09:10 10° WNW visible
23 Jan 6.0 13:22:08 11° SSW 13:22:08 11° SSW 13:22:13 10° SSW visible
25 Jan 5.3 02:00:30 10° SW 02:04:30 35° WNW 02:08:30 10° NNW visible
26 Jan 6.3 02:18:44 10° WSW 02:21:50 19° WNW 02:24:57 10° NNW visible
